Temperature
33 33 32 33 34 33 34 33 33 34 35 35 34 34 34 34 34 33 31 30 29 28 27 26 25 24 23 22 21 21 20 20 20 20 20 19 19 19 19 19 19 19 19 19
33 33 34 35 35 34 34 33 33 34 35 35 34 34 35 35 34 33 32 31 29 28 27 26 25 24 23 22 21 21 21 20 20 20 20 20 20 19 19 20 19 19 19 19
32 34 35 34 34 34 34 34 34 34 35 35 34 33 33 34 34 33 33 31 30 29 28 26 25 25 24 22 22 21 21 21 21 20 20 20 20 20 20 19 19 19 19 19
34 35 35 34 34 34 33 34 34 34 33 33 33 32 32 33 32 33 33 32 31 29 28 27 26 25 24 23 22 22 21 21 21 20 20 20 20 20 20 20 20 19 19 19
33 34 34 34 34 34 34 35 34 34 33 32 33 31 32 33 32 32 33 32 31 30 29 27 26 25 25 24 23 22 21 21 21 21 20 20 20 20 20 20 20 19 19 19
34 35 35 35 35 35 35 34 34 34 33 31 32 31 31 32 32 32 33 33 32 31 29 28 27 26 25 24 23 22 22 21 21 21 20 20 20 20 20 20 20 19 19 19
33 34 35 35 34 34 34 32 31 31 31 30 32 31 31 32 33 33 33 33 32 31 30 28 27 26 25 24 24 22 22 21 21 21 21 20 20 20 20 20 20 20 19 19
32 32 34 35 34 33 33 33 30 30 30 31 31 30 31 32 32 32 32 32 31 30 30 29 27 26 25 25 24 23 22 22 21 21 21 21 20 20 20 20 20 20 20 20
32 32 35 35 35 34 32 33 33 32 31 30 30 30 31 31 31 31 31 31 31 30 29 28 27 26 25 25 24 23 22 22 21 21 21 21 21 20 20 20 20 20 20 20
32 31 33 34 35 34 34 33 32 31 29 30 30 30 30 29 30 30 30 30 30 29 29 28 27 27 26 25 24 23 23 22 21 21 21 21 21 21 20 20 20 20 20 20
32 31 32 33 32 32 33 32 31 31 31 30 29 30 31 30 29 29 29 29 29 29 29 28 27 27 26 25 24 23 23 22 21 21 21 20 20 20 20 20 20 20 20 19
31 31 30 31 33 34 33 32 31 30 29 30 30 30 31 30 30 29 29 28 28 28 28 27 27 26 25 25 24 23 23 22 21 21 21 20 20 20 20 20 20 20 19 19
29 29 28 30 31 32 32 32 32 31 30 30 30 29 31 30 29 29 28 28 27 27 27 26 25 25 25 24 24 23 23 22 21 21 20 20 20 20 20 20 20 20 19 19
28 28 28 28 29 31 31 31 31 31 30 29 29 29 30 29 29 28 28 27 26 26 25 25 24 24 24 24 23 23 22 22 21 21 20 20 20 19 19 19 19 19 19 19
28 27 28 29 30 30 30 30 31 30 30 30 30 29 29 29 28 28 27 26 26 25 24 24 23 23 23 23 23 22 22 22 21 21 20 20 20 19 19 19 19 19 19 19
27 26 27 27 29 30 30 30 30 30 30 30 30 29 29 28 27 27 26 26 25 24 23 22 22 22 22 21 21 21 21 21 21 20 20 19 19 19 19 19 19 18 18 18
26 25 25 26 28 28 28 29 30 30 30 30 29 28 28 27 27 26 26 25 24 24 23 22 22 21 21 21 20 20 20 20 20 20 19 19 19 19 19 18 18 18 18 18
25 24 24 25 25 25 27 30 30 29 29 29 29 28 27 27 25 25 25 24 23 23 22 22 21 21 21 20 20 20 20 19 19 19 19 19 19 18 18 18 18 18 18 18
26 24 24 24 25 26 27 28 28 27 27 28 27 27 26 25 25 24 23 23 22 22 21 21 21 20 20 20 19 19 19 19 18 18 18 18 18 18 18 18 18 17 17 17
26 25 24 24 23 24 25 27 27 27 25 26 26 25 25 25 24 23 22 22 21 21 20 20 20 19 19 19 19 18 18 18 18 18 17 17 17 17 17 17 17 17 17 17
24 24 24 23 23 24 25 26 27 24 23 24 24 24 23 23 22 21 21 21 20 20 20 19 19 19 18 18 18 18 17 17 17 17 17 17 17 17 17 16 16 16 16 16
23 23 23 23 23 23 24 25 24 23 23 23 23 22 22 21 21 20 20 20 19 19 18 18 18 18 17 17 17 17 17 16 16 16 16 16 16 16 16 16 16 16 16 16
23 23 22 22 22 22 22 22 22 22 22 22 22 21 20 20 20 20 19 19 18 18 18 17 17 17 16 16 16 16 16 16 16 16 16 16 16 16 16 15 15 15 15 15
22 22 21 21 21 21 21 21 21 21 21 21 20 20 20 19 19 19 18 18 17 17 17 17 16 16 16 15 15 15 15 15 15 15 15 15 15 15 15 15 15 15 15 14
20 20 20 19 20 20 20 20 20 20 20 20 19 19 19 18 18 18 17 17 16 16 16 16 16 15 15 15 15 15 15 14 14 14 14 14 14 14 14 14 14 14 14 14
20 19 19 19 19 19 19 19 19 19 19 19 18 18 18 18 17 17 16 16 16 16 15 15 15 15 15 14 14 14 14 14 14 14 13 13 13 14 14 14 14 14 14 14
Wind_Speed
15 15 15 14 14 14 14 12 9 10 8 7 6 6 9 10 11 13 14 14 14 15 15 14 13 14 13 12 11 9 8 8 6 5 5 4 4 4 4 4 6 7 7 7
16 19 18 15 14 14 16 13 12 11 8 8 7 7 8 10 11 12 14 14 15 15 16 15 14 14 14 13 11 10 9 9 8 5 4 4 4 4 4 3 5 6 6 6
20 17 16 14 15 15 15 13 12 11 10 9 9 9 7 7 7 10 12 14 15 16 17 16 15 14 15 14 13 12 10 10 9 7 6 5 4 3 4 4 5 5 6 6
19 19 17 15 16 15 13 12 13 13 11 9 9 8 7 8 9 11 12 12 14 15 16 16 16 15 15 15 14 11 11 10 9 7 7 7 6 5 5 4 5 5 5 6
18 17 17 17 15 14 14 12 12 13 13 13 11 9 8 7 9 11 12 12 14 15 17 18 18 16 15 15 15 12 11 10 9 7 6 6 5 4 4 5 5 5 5 5
19 16 16 17 14 13 13 13 14 14 13 13 12 11 8 6 8 9 11 12 12 13 15 16 16 14 13 14 14 14 12 10 10 8 7 6 5 4 4 5 6 6 5 5
18 18 16 14 14 14 13 12 10 11 11 11 10 10 6 4 6 7 7 8 10 11 12 13 14 15 14 14 14 14 13 12 11 10 8 7 6 5 5 5 6 6 5 5
16 16 17 15 15 13 13 14 12 13 11 9 7 7 4 1 1 3 3 4 6 8 10 12 13 14 14 15 14 14 14 13 12 11 9 8 7 6 5 5 5 5 4 5
14 14 13 14 14 14 15 15 15 15 15 13 9 6 3 2 2 3 3 5 4 4 6 8 10 11 12 12 13 14 14 13 13 12 10 8 8 7 6 6 6 4 4 4
14 14 13 11 12 16 16 14 10 13 12 14 12 9 5 6 5 5 3 3 4 4 5 7 7 8 10 11 10 12 13 13 12 12 11 10 9 8 7 5 5 5 4 3
14 15 16 13 14 15 14 14 12 11 12 13 11 6 2 4 6 5 4 3 2 2 3 4 5 7 10 11 12 12 13 12 12 11 10 8 9 8 7 5 5 5 4 4
9 12 15 16 15 14 14 14 14 12 11 12 13 6 3 4 3 3 3 4 2 2 3 4 5 4 5 7 10 10 11 12 11 10 9 8 8 8 8 7 5 5 5 5
7 8 11 14 13 14 14 14 14 14 12 13 13 7 4 4 3 4 5 5 4 3 4 5 5 4 3 3 4 8 9 10 10 9 9 8 8 8 8 7 6 6 5 5
5 10 14 16 13 10 12 15 14 14 13 13 13 8 4 3 3 4 6 5 4 5 5 6 6 5 3 3 4 4 6 7 8 8 8 8 7 7 6 6 6 5 5 5
7 13 16 19 19 18 16 16 16 16 15 15 11 7 4 3 4 4 5 6 5 5 6 6 6 5 4 4 4 3 3 4 5 6 6 5 5 4 4 5 4 4 4 5
7 11 15 18 19 19 18 17 17 15 15 16 12 8 2 4 4 4 5 5 5 4 4 5 5 5 5 4 3 3 2 2 3 4 4 4 3 4 4 3 3 3 3 4
9 10 14 17 18 19 19 16 15 13 12 12 11 6 2 2 3 3 5 4 4 3 3 4 4 4 3 3 2 2 2 2 3 3 3 3 3 3 2 3 3 4 4 4
11 10 10 14 15 19 13 10 11 10 10 8 5 2 1 2 4 3 4 4 3 3 3 3 3 3 2 2 2 2 3 2 1 2 2 2 2 2 2 3 3 3 3 3
13 10 11 13 16 17 12 8 7 8 8 6 3 1 1 3 4 4 4 4 4 4 3 3 3 3 3 3 3 3 3 2 1 2 2 2 2 2 2 2 2 2 2 2
15 12 13 14 16 15 9 6 6 6 7 3 2 1 1 2 3 1 4 5 5 4 3 4 4 4 3 4 4 2 1 2 1 1 1 2 2 1 1 1 1 1 1 2
12 14 16 17 17 12 8 8 7 8 3 4 3 2 2 2 3 3 4 4 4 3 3 3 3 3 3 3 3 2 1 1 1 2 2 1 1 0 0 1 1 1 2 2
13 12 13 13 15 11 7 6 3 3 4 4 5 5 5 5 6 4 3 3 3 3 3 3 3 3 3 3 2 2 3 3 2 3 2 2 2 1 1 1 1 1 2 2
9 8 7 6 5 2 5 5 4 4 3 4 4 5 4 3 3 2 2 2 2 2 2 2 2 3 3 2 2 2 2 2 2 2 2 1 1 1 1 1 2 1 2 2
6 5 6 6 4 4 3 3 4 5 5 4 5 4 3 2 2 2 3 3 3 2 2 1 1 2 2 2 2 2 2 2 1 1 0 0 0 0 0 1 2 2 1 1
11 8 7 7 7 5 4 4 4 3 2 2 3 3 3 2 2 2 2 2 2 1 1 1 1 1 1 1 1 1 2 2 1 0 1 1 1 1 0 1 2 1 1 1
10 9 8 7 5 4 5 4 3 3 2 2 2 3 3 2 2 2 2 2 2 2 1 2 2 1 1 1 1 2 2 2 1 0 1 2 2 1 1 0 1 4 2 1
Wind_Direction
229 237 241 239 238 252 270 274 277 272 252 245 245 230 193 189 187 175 173 173 175 175 170 165 166 162 159 157 159 165 168 159 167 174 173 177 178 179 175 172 164 167 184 182
235 236 243 247 250 254 264 269 271 272 265 255 251 253 219 195 198 184 179 176 177 178 172 168 171 171 166 162 164 168 172 169 177 176 175 180 175 183 179 173 156 171 185 181
237 243 241 243 254 255 260 265 273 281 280 269 260 253 246 219 201 193 187 180 177 181 174 171 175 175 172 169 172 177 173 171 182 176 178 180 170 188 175 173 170 183 184 184
245 246 247 247 247 253 258 261 267 278 274 273 266 264 241 224 201 207 195 191 179 176 170 173 178 178 177 174 175 171 168 169 175 178 182 186 184 189 181 178 175 181 189 190
246 245 246 248 250 251 259 267 272 271 271 272 267 272 249 216 204 203 196 197 181 175 174 176 181 180 179 175 173 169 163 167 170 182 188 194 197 189 176 174 169 182 195 198
256 251 247 249 248 249 261 266 267 263 261 258 256 259 257 236 201 206 198 188 177 178 176 175 177 173 176 175 171 168 166 170 172 182 185 188 198 188 178 175 173 189 194 201
246 248 245 245 246 239 243 251 258 254 247 254 262 255 241 224 207 202 190 181 172 173 173 170 173 172 175 175 172 169 167 173 177 183 189 186 194 195 190 187 190 194 194 198
243 241 233 233 237 245 242 241 245 259 262 262 249 250 258 165 89 103 131 133 147 166 175 175 177 175 176 178 174 170 170 175 180 185 190 189 192 199 201 205 204 200 201 193
259 255 238 230 231 236 244 245 252 260 265 268 254 240 235 191 138 103 125 127 140 163 164 168 172 171 174 181 177 172 169 176 182 187 186 189 193 200 200 199 208 209 207 199
267 275 265 244 233 231 240 250 257 253 263 265 251 239 225 193 179 161 157 147 146 159 180 169 167 174 173 183 183 177 170 175 181 185 189 193 195 199 200 205 197 208 209 205
260 266 267 256 236 240 233 241 255 266 265 264 265 260 211 160 163 175 165 154 155 191 158 149 161 167 174 177 183 184 172 173 183 187 188 191 187 195 197 203 205 203 205 202
268 262 265 263 252 241 245 242 242 251 260 270 272 251 161 139 163 154 154 137 133 154 121 132 130 138 161 174 174 173 173 176 181 184 185 190 187 187 193 201 204 203 204 203
316 280 264 258 249 234 241 245 245 254 258 258 263 252 169 130 121 112 115 125 116 84 92 97 99 105 124 142 156 167 172 177 178 180 181 184 190 192 195 197 198 203 206 210
284 269 266 262 265 266 253 252 249 251 254 255 254 242 198 143 143 127 117 102 95 84 67 74 82 78 90 119 117 132 157 171 171 172 181 188 194 194 194 197 199 203 205 211
269 265 268 272 275 275 265 260 251 246 253 260 265 252 206 142 112 110 113 106 96 83 70 70 72 70 69 71 83 102 128 140 156 161 174 186 190 186 194 197 196 199 203 214
269 274 281 275 270 272 266 260 254 249 250 257 259 256 200 123 123 134 125 120 116 102 88 78 74 68 61 55 59 69 97 111 129 147 157 157 167 172 184 189 186 194 211 222
267 272 273 270 272 273 258 256 257 255 255 258 262 261 189 143 112 128 130 121 115 110 107 96 87 85 74 59 65 85 77 90 103 113 121 142 163 175 182 196 190 199 209 217
260 266 266 267 268 260 264 267 265 262 268 263 262 257 175 111 91 90 98 119 125 112 96 86 88 92 98 79 78 90 95 89 114 121 133 139 158 167 181 196 204 211 214 217
246 248 257 260 260 257 254 269 276 274 272 295 311 335 157 125 121 110 81 79 96 88 76 76 73 70 67 65 59 75 97 120 139 115 95 86 100 149 190 211 222 222 215 214
232 230 243 253 258 261 264 280 288 278 265 336 27 84 115 154 212 157 78 74 69 69 70 68 63 59 57 56 58 59 80 100 100 93 86 89 82 86 222 196 224 224 211 216
234 230 237 247 254 256 284 296 282 257 264 9 21 55 69 69 59 84 77 71 68 69 69 67 65 56 56 53 59 46 40 53 55 66 67 72 73 55 163 144 171 211 224 209
259 252 245 247 252 256 328 314 313 29 42 37 42 56 61 70 82 80 72 68 71 64 64 64 67 66 60 53 67 57 45 36 49 63 59 46 33 329 36 80 227 213 228 242
256 269 277 277 268 352 13 11 24 37 33 45 53 56 64 68 75 69 57 54 57 66 64 59 69 77 69 67 84 81 50 44 53 63 58 35 25 21 22 305 272 242 217 240
287 303 285 281 278 308 335 357 2 9 17 37 53 48 51 51 46 36 27 19 24 48 53 50 87 99 85 70 63 66 71 73 76 94 67 293 217 222 278 284 283 283 276 247
294 293 287 279 271 293 313 334 336 332 341 16 36 29 22 31 35 22 19 9 15 42 21 23 99 120 116 99 90 84 89 86 75 44 306 284 271 245 336 343 339 312 326 264
279 282 277 278 284 289 306 330 330 326 329 3 9 358 358 4 349 349 3 29 41 49 70 65 60 76 100 94 80 74 88 92 83 320 288 289 282 245 170 103 24 27 6 30
Height
1455 1457 1458 1453 1449 1450 1450 1453 1455 1449 1439 1441 1445 1446 1446 1448 1451 1456 1463 1469 1473 1478 1483 1487 1491 1495 1497 1500 1502 1504 1506 1508 1510 1512 1514 1516 1518 1520 1521 1523 1524 1525 1527 1529
1453 1454 1446 1443 1443 1445 1447 1452 1452 1444 1436 1438 1442 1444 1440 1443 1447 1451 1457 1463 1469 1475 1480 1484 1489 1492 1495 1497 1499 1502 1504 1506 1508 1511 1513 1515 1517 1519 1521 1522 1523 1524 1526 1528
1451 1445 1439 1441 1444 1446 1446 1448 1448 1447 1440 1436 1442 1449 1444 1441 1444 1449 1453 1458 1463 1469 1475 1480 1485 1489 1492 1494 1497 1499 1501 1504 1506 1509 1511 1514 1516 1518 1520 1521 1522 1523 1525 1527
1442 1436 1437 1440 1442 1443 1449 1440 1441 1443 1449 1451 1447 1464 1449 1443 1444 1447 1449 1454 1458 1464 1470 1476 1481 1485 1488 1491 1494 1497 1499 1502 1504 1507 1509 1512 1514 1516 1518 1519 1520 1522 1523 1525
1439 1434 1436 1440 1438 1438 1441 1436 1438 1442 1447 1453 1449 1461 1454 1440 1446 1445 1446 1450 1454 1460 1465 1471 1476 1480 1485 1488 1491 1494 1497 1499 1502 1505 1507 1510 1512 1514 1516 1518 1519 1520 1521 1523
1432 1428 1429 1431 1431 1433 1435 1437 1439 1441 1447 1465 1455 1461 1461 1444 1442 1443 1442 1445 1450 1456 1461 1467 1472 1477 1481 1485 1489 1491 1494 1497 1499 1502 1505 1507 1510 1512 1514 1516 1517 1518 1520 1521
1437 1429 1425 1427 1432 1432 1436 1449 1464 1467 1467 1466 1449 1453 1452 1437 1435 1437 1439 1442 1447 1452 1458 1464 1468 1473 1477 1481 1485 1488 1491 1493 1496 1499 1502 1505 1507 1509 1511 1513 1514 1516 1517 1518
1444 1440 1425 1424 1430 1436 1436 1443 1465 1477 1473 1462 1451 1457 1447 1436 1436 1436 1439 1443 1446 1451 1456 1460 1464 1468 1473 1477 1481 1484 1487 1490 1493 1496 1499 1502 1504 1507 1509 1510 1512 1513 1515 1516
1438 1436 1418 1419 1422 1428 1438 1439 1434 1449 1454 1464 1458 1449 1443 1438 1437 1439 1441 1443 1447 1451 1454 1459 1463 1466 1470 1474 1478 1481 1484 1487 1490 1493 1496 1498 1501 1504 1506 1508 1509 1511 1512 1514
1431 1439 1423 1417 1420 1423 1427 1431 1439 1450 1465 1470 1458 1453 1451 1445 1443 1441 1444 1446 1448 1451 1454 1457 1461 1464 1467 1470 1473 1478 1481 1484 1487 1490 1493 1495 1498 1500 1503 1505 1506 1508 1510 1512
1429 1438 1432 1424 1427 1429 1429 1434 1438 1441 1444 1460 1466 1459 1435 1438 1439 1442 1444 1446 1449 1452 1453 1456 1459 1462 1465 1469 1472 1476 1478 1482 1485 1487 1490 1493 1495 1497 1499 1501 1503 1505 1507 1509
1430 1434 1438 1428 1417 1416 1422 1428 1436 1452 1452 1447 1452 1454 1431 1435 1437 1440 1443 1447 1450 1452 1454 1456 1458 1461 1464 1466 1469 1471 1475 1478 1481 1484 1486 1489 1492 1494 1496 1498 1500 1502 1504 1505
1438 1442 1450 1443 1431 1422 1424 1423 1426 1432 1440 1447 1453 1452 1431 1434 1438 1441 1445 1449 1451 1452 1454 1456 1459 1460 1462 1465 1468 1469 1471 1474 1477 1480 1483 1486 1488 1490 1492 1494 1496 1498 1500 1502
1441 1444 1449 1452 1440 1429 1429 1427 1426 1433 1441 1445 1444 1444 1436 1436 1439 1442 1446 1449 1452 1453 1454 1456 1459 1461 1462 1464 1466 1467 1470 1473 1474 1477 1480 1483 1485 1487 1490 1491 1493 1495 1496 1498
1440 1445 1441 1436 1429 1426 1427 1426 1425 1430 1433 1439 1438 1438 1437 1437 1440 1444 1447 1450 1453 1455 1457 1459 1460 1462 1463 1464 1466 1468 1470 1472 1473 1474 1477 1479 1482 1485 1487 1489 1490 1491 1493 1494
1441 1446 1445 1441 1431 1427 1427 1424 1423 1425 1427 1430 1432 1436 1433 1438 1442 1446 1448 1451 1454 1457 1459 1460 1461 1462 1464 1465 1466 1467 1469 1470 1472 1473 1475 1477 1479 1481 1483 1485 1486 1488 1489 1490
1444 1448 1452 1448 1435 1431 1434 1425 1422 1423 1421 1426 1433 1434 1434 1438 1442 1446 1448 1451 1455 1458 1459 1460 1461 1462 1464 1466 1466 1467 1468 1470 1470 1471 1473 1475 1477 1478 1480 1481 1482 1483 1485 1486
1446 1449 1450 1448 1446 1454 1431 1417 1419 1423 1424 1423 1427 1431 1435 1439 1445 1449 1451 1453 1455 1458 1459 1460 1461 1462 1463 1465 1465 1466 1467 1469 1470 1470 1472 1473 1474 1475 1477 1478 1479 1480 1482 1483
1440 1446 1450 1449 1448 1439 1429 1423 1423 1427 1430 1427 1429 1433 1436 1440 1445 1450 1452 1454 1456 1458 1460 1460 1461 1462 1463 1464 1465 1466 1467 1468 1469 1470 1470 1471 1472 1473 1474 1475 1476 1477 1478 1478
1435 1439 1447 1447 1451 1449 1435 1424 1424 1428 1437 1431 1434 1436 1439 1441 1446 1451 1453 1455 1456 1458 1459 1460 1461 1462 1462 1462 1463 1465 1466 1467 1468 1468 1469 1470 1470 1471 1471 1472 1474 1474 1474 1474
1436 1439 1442 1444 1445 1439 1431 1427 1427 1440 1443 1437 1437 1439 1441 1444 1448 1452 1453 1456 1458 1459 1459 1459 1460 1461 1461 1462 1462 1464 1465 1466 1466 1467 1468 1468 1468 1469 1469 1470 1470 1471 1471 1471
1436 1438 1439 1439 1445 1445 1433 1430 1435 1440 1438 1439 1440 1442 1445 1447 1449 1452 1454 1456 1458 1458 1458 1459 1459 1460 1460 1461 1462 1463 1463 1464 1465 1465 1465 1466 1466 1467 1468 1468 1468 1468 1468 1468
1433 1436 1436 1439 1443 1440 1438 1438 1439 1439 1440 1441 1443 1445 1447 1449 1451 1453 1455 1456 1457 1457 1458 1458 1459 1459 1460 1461 1461 1462 1463 1463 1463 1463 1464 1464 1464 1465 1465 1465 1466 1466 1466 1467
1434 1435 1437 1439 1440 1440 1440 1440 1441 1441 1443 1443 1445 1447 1448 1450 1452 1453 1454 1455 1456 1456 1457 1458 1458 1459 1459 1460 1460 1460 1461 1461 1461 1462 1462 1462 1462 1462 1463 1463 1463 1464 1464 1464
1441 1440 1440 1442 1441 1442 1442 1442 1443 1443 1445 1445 1446 1448 1449 1450 1451 1453 1454 1454 1454 1455 1456 1457 1457 1457 1458 1458 1459 1459 1459 1459 1460 1460 1460 1460 1460 1460 1461 1461 1461 1461 1461 1461
1442 1441 1442 1441 1441 1442 1444 1443 1444 1444 1445 1446 1447 1448 1449 1450 1451 1452 1453 1453 1453 1454 1455 1455 1455 1456 1457 1457 1457 1457 1457 1457 1457 1457 1458 1458 1459 1459 1458 1458 1458 1458 1459 1458